TimeAKST,TemperatureF,Dew PointF,Humidity,Sea Level PressureIn,VisibilityMPH,Wind Direction,Wind SpeedMPH,Gust SpeedMPH,PrecipitationIn,Events,Conditions,WindDirDegrees,DateUTC
12:53 AM,19.9,12.0,71,29.38,10.0,NNW,8.1,-,N/A,,Overcast,340,2013-02-23 09:53:00
1:53 AM,19.9,12.0,71,29.37,10.0,North,5.8,-,N/A,,Mostly Cloudy,350,2013-02-23 10:53:00
2:53 AM,21.0,12.0,68,29.34,10.0,NNW,6.9,-,N/A,,Overcast,340,2013-02-23 11:53:00
3:53 AM,21.0,12.9,71,29.32,10.0,NNW,3.5,-,N/A,,Overcast,340,2013-02-23 12:53:00
4:53 AM,21.9,14.0,72,29.29,10.0,North,5.8,-,N/A,,Overcast,350,2013-02-23 13:53:00
5:53 AM,21.0,14.0,74,29.26,10.0,Calm,Calm,-,N/A,,Overcast,0,2013-02-23 14:53:00
6:53 AM,21.9,14.0,72,29.24,10.0,Calm,Calm,-,N/A,,Overcast,0,2013-02-23 15:53:00
7:03 AM,21.2,15.8,80,29.23,6.0,NNW,3.5,-,0.00,Snow,Light Snow,330,2013-02-23 16:03:00
7:21 AM,21.2,15.8,80,29.22,8.0,North,4.6,-,0.00,Snow,Light Snow,10,2013-02-23 16:21:00
7:53 AM,21.9,16.0,78,29.20,10.0,North,3.5,-,0.00,,Overcast,360,2013-02-23 16:53:00
8:53 AM,28.0,21.0,75,29.16,10.0,North,5.8,-,N/A,,Overcast,350,2013-02-23 17:53:00
9:53 AM,32.0,23.0,69,29.13,10.0,NNW,10.4,18.4,N/A,,Overcast,330,2013-02-23 18:53:00
10:53 AM,33.1,24.1,70,29.12,10.0,NNW,10.4,-,0.00,,Overcast,340,2013-02-23 19:53:00
11:36 AM,33.8,26.6,75,29.13,4.0,NW,4.6,-,0.00,Snow,Light Snow,320,2013-02-23 20:36:00
11:53 AM,33.1,27.0,78,29.13,3.0,Calm,Calm,-,0.00,Snow,Light Snow,0,2013-02-23 20:53:00
12:09 PM,32.0,28.4,87,29.14,4.0,ESE,4.6,-,0.00,Snow,Light Snow,120,2013-02-23 21:09:00
12:18 PM,32.0,28.4,87,29.14,7.0,Calm,Calm,-,0.00,Snow,Light Snow,0,2013-02-23 21:18:00
12:53 PM,33.1,28.0,82,29.13,10.0,Calm,Calm,-,0.00,,Overcast,0,2013-02-23 21:53:00
1:53 PM,33.1,28.0,82,29.13,10.0,Calm,Calm,-,N/A,,Mostly Cloudy,0,2013-02-23 22:53:00
2:53 PM,35.1,26.1,70,29.14,10.0,WSW,3.5,-,0.00,,Overcast,240,2013-02-23 23:53:00
3:04 PM,33.8,26.6,75,29.14,2.5,SSE,4.6,-,0.00,Snow,Light Snow,160,2013-02-24 00:04:00
3:09 PM,33.8,28.4,81,29.15,1.0,Calm,Calm,-,0.00,Snow,Light Snow,0,2013-02-24 00:09:00
3:18 PM,33.8,28.4,81,29.15,0.8,Calm,Calm,-,0.00,Snow,Light Snow,0,2013-02-24 00:18:00
3:29 PM,32.0,30.2,93,29.15,1.2,Calm,Calm,-,0.00,Snow,Light Snow,0,2013-02-24 00:29:00
3:50 PM,32.0,30.2,93,29.16,2.5,Calm,Calm,-,0.01,Snow,Light Snow,0,2013-02-24 00:50:00
3:53 PM,32.0,30.0,92,29.16,3.0,Calm,Calm,-,0.01,Snow,Light Snow,0,2013-02-24 00:53:00
4:16 PM,32.0,30.2,93,29.17,3.0,Calm,Calm,-,0.00,Snow,Light Snow,0,2013-02-24 01:16:00
4:27 PM,32.0,30.2,93,29.17,2.5,Calm,Calm,-,0.00,Snow,Light Snow,0,2013-02-24 01:27:00
4:45 PM,32.0,30.2,93,29.17,4.0,Calm,Calm,-,0.00,Snow,Light Snow,0,2013-02-24 01:45:00
4:51 PM,32.0,30.2,93,29.18,4.0,Calm,Calm,-,0.00,Snow,Light Snow,0,2013-02-24 01:51:00
4:53 PM,32.0,30.0,92,29.18,5.0,Calm,Calm,-,0.00,Snow,Light Snow,0,2013-02-24 01:53:00
5:17 PM,32.0,30.2,93,29.19,9.0,SE,3.5,-,0.00,,Overcast,140,2013-02-24 02:17:00
5:25 PM,32.0,30.2,93,29.20,9.0,Calm,Calm,-,0.00,,Overcast,0,2013-02-24 02:25:00
5:53 PM,32.0,30.0,92,29.20,4.0,Calm,Calm,-,0.00,Snow,Light Snow,0,2013-02-24 02:53:00
6:07 PM,32.0,30.2,93,29.20,8.0,Calm,Calm,-,0.00,,Overcast,0,2013-02-24 03:07:00
6:32 PM,32.0,30.2,93,29.22,10.0,Calm,Calm,-,0.00,,Overcast,0,2013-02-24 03:32:00
6:39 PM,32.0,30.2,93,29.22,10.0,Calm,Calm,-,0.00,,Overcast,0,2013-02-24 03:39:00
6:53 PM,32.0,30.0,92,29.22,9.0,Calm,Calm,-,0.00,Snow,Light Snow,0,2013-02-24 03:53:00
7:13 PM,30.2,28.4,93,29.23,5.0,Calm,Calm,-,0.00,Snow,Light Snow,0,2013-02-24 04:13:00
7:27 PM,32.0,30.2,93,29.24,7.0,North,3.5,-,0.00,Snow,Light Snow,10,2013-02-24 04:27:00
7:34 PM,30.2,30.2,100,29.24,8.0,NNE,3.5,-,0.00,Snow,Light Snow,20,2013-02-24 04:34:00
7:51 PM,32.0,30.2,93,29.25,2.5,East,3.5,-,0.00,Snow,Light Snow,100,2013-02-24 04:51:00
7:53 PM,32.0,30.0,92,29.25,2.5,East,3.5,-,0.00,Snow,Light Snow,80,2013-02-24 04:53:00
8:06 PM,32.0,30.2,93,29.26,7.0,ESE,3.5,-,0.00,Snow,Light Snow,120,2013-02-24 05:06:00
8:34 PM,32.0,30.2,93,29.27,2.5,Calm,Calm,-,0.00,Snow,Light Snow,0,2013-02-24 05:34:00
8:51 PM,30.2,30.2,100,29.28,3.0,Calm,Calm,-,0.00,Snow,Light Snow,0,2013-02-24 05:51:00
8:53 PM,30.9,30.0,96,29.28,3.0,Calm,Calm,-,0.00,Snow,Light Snow,0,2013-02-24 05:53:00
9:07 PM,30.2,30.2,100,29.28,7.0,Calm,Calm,-,0.00,,Overcast,0,2013-02-24 06:07:00
9:12 PM,30.2,30.2,100,29.28,9.0,Calm,Calm,-,0.00,,Overcast,0,2013-02-24 06:12:00
9:53 PM,30.9,30.0,96,29.30,10.0,Calm,Calm,-,0.00,,Overcast,0,2013-02-24 06:53:00
10:53 PM,30.0,28.9,96,29.32,7.0,Calm,Calm,-,N/A,,Overcast,0,2013-02-24 07:53:00
11:14 PM,28.4,28.4,100,29.32,7.0,ENE,3.5,-,N/A,,Mostly Cloudy,60,2013-02-24 08:14:00
11:41 PM,28.4,26.6,93,29.33,1.5,Calm,Calm,-,N/A,,Partly Cloudy,0,2013-02-24 08:41:00
11:53 PM,26.1,25.0,96,29.34,1.2,Calm,Calm,-,N/A,,Scattered Clouds,0,2013-02-24 08:53:00
11:56 PM,26.6,24.8,93,29.33,0.8,Calm,Calm,-,N/A,,Scattered Clouds,0,2013-02-24 08:56:00